Location: Newark
(48.4000°N, 4.0833°W)
Time: 13:44:31
(UTC+00:00)

N. Korean satellite - Visible Passes

Search period start: 21 November 2019 00:00
Search period end: 01 December 2019 00:00
Orbit: 456 x 506 km, 97.2° (Epoch: 20 November)

Date Brightness Start Highest point End Pass type
(mag) Time Alt. Az. Time Alt. Az. Time Alt. Az.
21 Nov 9.6 05:18:39 10° NE 05:21:16 18° E 05:23:51 10° SE visible
21 Nov 7.1 06:51:21 10° N 06:54:49 38° WNW 06:58:14 10° SW visible
21 Nov 7.3 17:29:47 10° S 17:33:23 58° W 17:37:05 10° NNW visible
22 Nov 6.5 06:25:48 10° N 06:29:30 75° WNW 06:33:08 10° SSW visible
22 Nov 6.6 17:04:21 10° SSE 17:08:00 70° ENE 17:11:43 10° N visible
22 Nov 10.3 18:41:09 10° W 18:41:52 10° W 18:42:33 10° WNW visible
23 Nov 7.4 06:00:27 10° NNE 06:04:05 53° E 06:07:40 10° S visible
23 Nov 9.6 18:13:29 10° SW 18:16:12 19° W 18:18:58 10° NW visible
24 Nov 8.9 05:35:22 10° NE 05:38:35 27° E 05:41:44 10° SSE visible
24 Nov 8.4 17:47:13 10° SSW 17:50:38 36° W 17:54:07 10° NNW visible
25 Nov 9.9 05:10:49 10° NE 05:12:58 15° E 05:15:06 10° SE visible
25 Nov 6.9 06:43:05 10° N 06:46:39 46° WNW 06:50:07 10° SW visible
25 Nov 6.9 17:21:30 10° S 17:25:10 73° WSW 17:28:55 10° NNW visible
26 Nov 6.6 06:17:34 10° NNE 06:21:17 87° E 06:24:54 10° SSW visible
26 Nov 6.7 16:56:10 10° SSE 16:59:47 56° ENE 17:03:28 10° N visible
26 Nov 10.1 18:31:47 10° WSW 18:33:32 13° W 18:35:18 10° WNW visible
27 Nov 7.9 05:52:18 10° NNE 05:55:50 42° E 05:59:17 10° S visible
27 Nov 9.3 18:04:52 10° SSW 18:07:55 24° W 18:10:58 10° NW visible
28 Nov 9.2 05:27:21 10° NE 05:30:16 22° E 05:33:09 10° SSE visible
28 Nov 7.4 07:00:28 10° N 07:03:42 30° WNW 07:06:53 10° SW visible
28 Nov 7.9 17:38:48 10° S 17:42:22 45° W 17:45:58 10° NNW visible
29 Nov 10.1 05:03:10 10° ENE 05:04:38 12° E 05:06:04 10° ESE visible
29 Nov 6.6 06:34:47 10° N 06:38:24 57° WNW 06:41:56 10° SSW visible
29 Nov 6.7 17:13:12 10° SSE 17:16:55 90° NNE 17:20:40 10° NNW visible
30 Nov 6.9 06:09:21 10° NNE 06:13:00 70° ESE 06:16:34 10° S visible
30 Nov 9.9 18:22:52 10° SW 18:25:11 16° W 18:27:31 10° NW visible
